User: anonymous
Location: Caltech
(34.1382°N, 118.1253°W)
Time: 21:30:57
(UTC-07:00)
Language:

Iridium 15 - Orbit

View from above orbital plane
View from above orbital plane
View from above satellite
View from above satellite

Ground track
Ground track

The orbit data is extracted from the following two-line orbital elements,

1 24869U 97034A   14213.33396920  .00000336  00000-0  11301-3 0    57
2 24869 086.3964 101.1027 0002185 098.8289 037.1601 14.34220159893299
Epoch (UTC): 01 August 2014 08:00:54
Eccentricity: 0.0002185
inclination: 86.3964°
perigee height: 776 km
apogee height: 779 km
right ascension of ascending node: 101.1027°
argument of perigee: 98.8289°
revolutions per day: 14.34220159
mean anomaly at epoch: 37.1601°
orbit number at epoch: 89329

The dashed part of the orbit path shows where the satellite is in the earth's shadow,  

DLR